Home > Weather > Porto Alegre > Past weeks

Flag for Brazil Past Weather in Porto Alegre, Rio Grande do Sul, Brazil — Yesterday and Last 2 Weeks

Now
48 °F

Clear.


Feels Like: 48 °F
Forecast: 45 / 61 °F
Wind: 2 mph from North

Location: Porto Alegre Aero-Porto

Current Time: May 24, 2016 at 3:21:30 AM

Latest Report: May 24, 2016 at 3:00 AM


Visibility: 10 mi

Pressure: 30.39 "Hg

Humidity: 100%

Dew Point: 48 °F

Location of Porto AlegreLocation

Past Weather in Porto Alegre — Graph

°F

Porto Alegre Temperature Yesterday

Maximum temperature yesterday: 61 °F (at 4:00 PM)
Minimum temperature yesterday: 48 °F (at 7:00 AM)
Average temperature yesterday: 54 °F

High & Low Weather Summary for the Past Weeks

 TemperatureHumidityPressure
High75 °F (May 14, 2:00 PM)100% (May 9, 8:00 AM)30.39 "Hg (May 9, 8:00 AM)
Low45 °F (May 18, 4:00 AM)30% (May 15, 8:00 PM)29.59 "Hg (May 15, 5:00 PM)
Average59 °F84%30.11 "Hg
* Reported May 9 2:00 AM — May 24 2:00 AM, Porto Alegre, Weather by CustomWeather, © 2016

Note: Actual official high and low records may vary slightly from our data, if they occured in-between our weather recording intervals... More about our weather records

Advertising

Porto Alegre Weather History for the Previous 24 Hours

Scroll right to see more
 ConditionsComfort  
Time TempWeatherWind HumidityBarometerVisibility
2:00 AM
Tue, May 24
46 °FClear.No wind100%30.39 "Hg10 mi
1:00 AM46 °FClear.No wind100%30.39 "Hg10 mi
12:00 AM48 °FClear.1 mph100%30.39 "Hg10 mi
11:00 PM
Mon, May 23
52 °FPassing clouds.3 mph88%30.39 "HgN/A
10:00 PM54 °FPassing clouds.No wind82%30.39 "HgN/A
9:00 PM55 °FPassing clouds.2 mph77%30.39 "HgN/A
8:00 PM57 °FPassing clouds.3 mph77%30.39 "HgN/A
7:00 PM57 °FPassing clouds.6 mph77%30.36 "HgN/A
6:00 PM57 °FPassing clouds.3 mph77%30.36 "HgN/A
5:00 PM59 °FPassing clouds.7 mph72%30.33 "HgN/A
4:00 PM61 °FBroken clouds.7 mph63%30.33 "HgN/A
3:00 PM59 °FPartly sunny.8 mph72%30.30 "HgN/A
2:00 PM57 °FPartly sunny.8 mph77%30.30 "HgN/A
1:00 PM55 °FPartly sunny.9 mph77%30.33 "HgN/A
12:00 PM54 °FPartly sunny.14 mph82%30.33 "HgN/A
11:00 AM54 °FPartly sunny.13 mph82%30.33 "HgN/A
10:00 AM52 °FPartly sunny.13 mph88%30.33 "HgN/A
9:00 AM50 °FPartly sunny.12 mph94%30.30 "HgN/A
8:00 AM48 °FPartly sunny.12 mph100%30.27 "HgN/A
7:00 AM48 °FScattered clouds.13 mph100%30.24 "HgN/A
6:00 AM50 °FPassing clouds.13 mph94%30.21 "HgN/A
5:00 AM50 °FPassing clouds.8 mph94%30.18 "HgN/A
4:00 AM50 °FPassing clouds.10 mph94%30.18 "HgN/A
3:00 AM52 °FPassing clouds.10 mph94%30.15 "HgN/A
Weather by CustomWeather, © 2016

See weather overviewHow to use our weather pages